Location: Street
(51.1247°N, 2.7429°W)
Time: 09:00:27
(UTC+01:00)

PCSat - Pass Details

Date: 31 March 2023
Orbit: 783 x 794 km, 67.1° (Epoch: 29 May)

Event Time Altitude Azimuth Distance (km) Brightness Sun altitude
Rises 22:52:08 0° 321° (NW) 3,300 14.1 -26.7°
Reaches altitude 10° 22:55:00 10° 334° (NNW) 2,370 13.0 -27.0°
Maximum altitude 22:59:25 25° 29° (NNE) 1,578 11.3 -27.4°
Enters shadow 23:00:49 22° 52° (NE) 1,673 11.2 -27.6°
